Weather History for KCGZ - August, 2014

Change the Weather History Date:

Monday, August 25, 2014

  Actual Average Record
Temperature  
Mean Temperature 86 °F -  
Max Temperature 98 °F 99 °F 109 °F (2001)
Min Temperature 75 °F 74 °F 66 °F (2002)
Cooling Degree Days 22    
Growing Degree Days 36 (Base 50)    
Moisture  
Dew Point 60 °F    
Average Humidity 42    
Maximum Humidity 73    
Minimum Humidity 24    
Precipitation  
Precipitation 0.00 in - - ()
Sea Level Pressure  
Sea Level Pressure 29.90 in    
Wind  
Wind Speed 3 mph (SSW)    
Max Wind Speed 24 mph    
Max Gust Speed 36 mph    
Visibility 10 miles    
Events Thunderstorm    
Averages and records for this station are not official NWS values.
T = Trace of Precipitation, MM = Missing Value Source: NWS Daily Summary

Daily Weather History Graph

Daily Weather History Graph

Search for Another Location

Airport or City:

Trip Planner

Search our weather history database for the weather conditions in past years. The results will help you decide how hot, cold, wet, or windy it might be!

Date:

Astronomy

Aug. 25, 2014 Rise Set
Actual Time 5:57 AM MST 7:00 PM MST
Civil Twilight 5:31 AM MST 7:26 PM MST
Nautical Twilight 5:01 AM MST 7:56 PM MST
Astronomical Twilight 4:29 AM MST 8:27 PM MST
Moon 6:02 AM MST (8/25) 6:57 PM MST (8/25)
Length of Visible Light 13h 54m
Length of Day
13h 03m
New Moon, 0% of the Moon is Illuminated
Aug 25
New Moon
Sep 2
First Quarter
Sep 8
Full
Sep 15
Last Quarter
Sep 23
New

Hourly Weather History & Observations

Time (MST) Temp. Heat Index Dew Point Humidity Pressure Visibility Wind Dir Wind Speed Gust Speed Precip Events Conditions
12:15 AM 84.2 °F - 51.8 °F 33% 29.88 in 10.0 mi Calm Calm - N/A   Clear
12:35 AM 84.2 °F 82.8 °F 53.6 °F 35% 29.88 in 10.0 mi Calm Calm - N/A   Clear
12:55 AM 84.2 °F 82.8 °F 53.6 °F 35% 29.88 in 10.0 mi SSW 3.5 mph - N/A   Clear
1:15 AM 84.2 °F 83.0 °F 55.4 °F 37% 29.88 in 10.0 mi South 6.9 mph - N/A   Clear
1:35 AM 84.2 °F 83.0 °F 55.4 °F 37% 29.88 in 10.0 mi Calm Calm - N/A   Clear
2:15 AM 82.4 °F 81.7 °F 55.4 °F 39% 29.89 in 10.0 mi Calm Calm - N/A   Clear
2:35 AM 82.4 °F 81.7 °F 55.4 °F 39% 29.89 in 10.0 mi Calm Calm - N/A   Clear
2:55 AM 80.6 °F 80.3 °F 53.6 °F 39% 29.89 in 10.0 mi Calm Calm - N/A   Clear
3:15 AM 80.6 °F 80.3 °F 53.6 °F 39% 29.89 in 10.0 mi Calm Calm - N/A   Clear
3:35 AM 80.6 °F 80.5 °F 55.4 °F 42% 29.89 in 10.0 mi Calm Calm - N/A   Partly Cloudy
3:55 AM 78.8 °F - 53.6 °F 42% 29.90 in 10.0 mi Calm Calm - N/A   Partly Cloudy
4:15 AM 80.6 °F 80.8 °F 57.2 °F 45% 29.90 in 10.0 mi Calm Calm - N/A   Scattered Clouds
4:35 AM 78.8 °F - 55.4 °F 44% 29.90 in 10.0 mi Calm Calm - N/A   Scattered Clouds
4:55 AM 80.6 °F 80.8 °F 57.2 °F 45% 29.90 in 10.0 mi Calm Calm - N/A   Scattered Clouds
5:15 AM 80.6 °F 80.8 °F 57.2 °F 45% 29.91 in 10.0 mi Calm Calm - N/A   Scattered Clouds
5:35 AM 80.6 °F 81.1 °F 59.0 °F 48% 29.92 in 10.0 mi Calm Calm - N/A   Scattered Clouds
5:55 AM 80.6 °F 80.8 °F 57.2 °F 45% 29.92 in 10.0 mi Calm Calm - N/A   Clear
6:15 AM 78.8 °F - 57.2 °F 47% 29.93 in 10.0 mi Calm Calm - N/A   Partly Cloudy
6:35 AM 80.6 °F 81.1 °F 59.0 °F 48% 29.93 in 10.0 mi Calm Calm - N/A   Partly Cloudy
6:55 AM 82.4 °F 82.9 °F 60.8 °F 48% 29.94 in 10.0 mi Calm Calm - N/A   Clear
7:35 AM 82.4 °F 83.9 °F 64.4 °F 54% 29.94 in 10.0 mi Calm Calm - N/A   Clear
7:55 AM 84.2 °F 85.6 °F 64.4 °F 51% 29.95 in 10.0 mi SSW 3.5 mph - N/A   Clear
8:15 AM 84.2 °F 85.6 °F 64.4 °F 51% 29.95 in 10.0 mi Calm Calm - N/A   Clear
8:35 AM 84.2 °F 85.6 °F 64.4 °F 51% 29.95 in 10.0 mi Calm Calm - N/A   Clear
8:55 AM 86.0 °F 87.3 °F 64.4 °F 48% 29.96 in 10.0 mi Calm Calm - N/A   Clear
9:15 AM 87.8 °F 89.4 °F 64.4 °F 46% 29.96 in 10.0 mi South 4.6 mph - N/A   Clear
9:35 AM 87.8 °F 89.4 °F 64.4 °F 46% 29.96 in 10.0 mi Calm Calm - N/A   Clear
9:55 AM 87.8 °F 89.4 °F 64.4 °F 46% 29.96 in 10.0 mi Calm Calm - N/A   Clear
10:15 AM 89.6 °F 91.1 °F 64.4 °F 43% 29.96 in 10.0 mi Calm Calm - N/A   Clear
10:35 AM 89.6 °F 91.1 °F 64.4 °F 43% 29.96 in 10.0 mi Calm Calm - N/A   Clear
10:55 AM 89.6 °F 91.1 °F 64.4 °F 43% 29.95 in 10.0 mi SE 5.8 mph - N/A   Partly Cloudy
11:15 AM 89.6 °F 91.1 °F 64.4 °F 43% 29.94 in 10.0 mi Calm Calm - N/A   Clear
11:35 AM 91.4 °F 92.1 °F 62.6 °F 38% 29.94 in 10.0 mi South 5.8 mph - N/A   Clear
11:55 AM 93.2 °F 93.3 °F 60.8 °F 34% 29.93 in 10.0 mi Calm Calm - N/A   Clear
12:15 PM 93.2 °F 94.1 °F 62.6 °F 36% 29.92 in 10.0 mi Calm Calm - N/A   Clear
12:35 PM 95.0 °F 95.2 °F 60.8 °F 32% 29.92 in 10.0 mi Calm Calm - N/A   Clear
12:55 PM 95.0 °F 95.2 °F 60.8 °F 32% 29.91 in 10.0 mi ESE 4.6 mph - N/A   Partly Cloudy
1:15 PM 95.0 °F 95.2 °F 60.8 °F 32% 29.91 in 10.0 mi ESE 4.6 mph - N/A   Partly Cloudy
1:35 PM 96.8 °F 97.1 °F 60.8 °F 30% 29.90 in 10.0 mi Calm Calm - N/A   Scattered Clouds
1:55 PM 98.6 °F 99.4 °F 60.8 °F 29% 29.89 in 10.0 mi SSW 8.1 mph 17.3 mph N/A   Partly Cloudy
2:15 PM 96.8 °F 95.8 °F 57.2 °F 27% 29.87 in 10.0 mi WNW 8.1 mph - N/A   Clear
2:35 PM 98.6 °F 97.6 °F 57.2 °F 25% 29.86 in 10.0 mi SSE 5.8 mph - N/A   Clear
2:55 PM 96.8 °F 95.8 °F 57.2 °F 27% 29.85 in 10.0 mi Calm Calm - N/A   Clear
3:15 PM 96.8 °F 95.8 °F 57.2 °F 27% 29.84 in 10.0 mi Calm Calm - N/A   Clear
3:35 PM 98.6 °F 97.6 °F 57.2 °F 25% 29.83 in 10.0 mi Calm Calm - N/A   Clear
3:55 PM 98.6 °F 97.2 °F 55.4 °F 24% 29.82 in 10.0 mi Calm Calm - N/A   Clear
4:15 PM 98.6 °F 97.6 °F 57.2 °F 25% 29.82 in 10.0 mi Calm Calm - N/A   Scattered Clouds
4:35 PM 98.6 °F 97.6 °F 57.2 °F 25% 29.83 in 10.0 mi West 5.8 mph - N/A   Scattered Clouds
4:55 PM 98.6 °F 97.6 °F 57.2 °F 25% 29.83 in 10.0 mi Calm Calm - N/A   Scattered Clouds
5:15 PM 98.6 °F 97.6 °F 57.2 °F 25% 29.82 in 10.0 mi WNW 8.1 mph - N/A   Clear
5:35 PM 98.6 °F 98.5 °F 59.0 °F 27% 29.83 in 10.0 mi SSE 12.7 mph - N/A   Partly Cloudy
5:55 PM 95.0 °F 94.4 °F 59.0 °F 30% 29.83 in 10.0 mi South 12.7 mph - N/A   Clear
6:15 PM 93.2 °F 93.3 °F 60.8 °F 34% 29.83 in 10.0 mi South 15.0 mph - N/A   Clear
6:35 PM 91.4 °F 91.4 °F 60.8 °F 36% 29.84 in 10.0 mi South 15.0 mph - N/A   Scattered Clouds
6:55 PM 87.8 °F 88.5 °F 62.6 °F 43% 29.86 in 3.0 mi SSW 17.3 mph 25.3 mph N/A   Partly Cloudy
7:15 PM 84.2 °F 85.0 °F 62.6 °F 48% 29.86 in 10.0 mi SSW 6.9 mph - N/A   Clear
7:35 PM 86.0 °F 86.1 °F 60.8 °F 43% 29.88 in 10.0 mi Calm Calm - N/A   Clear
8:15 PM 84.2 °F 84.4 °F 60.8 °F 45% 29.92 in 10.0 mi SSW 13.8 mph 21.9 mph N/A   Scattered Clouds
8:35 PM 80.6 °F 82.3 °F 64.4 °F 58% 29.92 in 3.0 mi SSW 21.9 mph 35.7 mph N/A   Mostly Cloudy
8:55 PM 82.4 °F 83.9 °F 64.4 °F 54% 29.93 in 5.0 mi South 19.6 mph 26.5 mph N/A Thunderstorm Scattered Clouds
9:15 PM 82.4 °F 83.9 °F 64.4 °F 54% 29.94 in 9.0 mi South 24.2 mph 29.9 mph N/A Thunderstorm Mostly Cloudy
9:35 PM 78.8 °F - 66.2 °F 65% 29.94 in 10.0 mi South 20.7 mph 29.9 mph N/A   Mostly Cloudy
10:15 PM 75.2 °F - 66.2 °F 73% 29.96 in 10.0 mi SSW 15.0 mph 25.3 mph N/A Thunderstorm Thunderstorm
10:35 PM 75.2 °F - 66.2 °F 73% 29.97 in 10.0 mi West 12.7 mph 18.4 mph N/A Thunderstorm Partly Cloudy
10:55 PM 75.2 °F - 62.6 °F 65% 29.96 in 10.0 mi Calm Calm - N/A Thunderstorm Partly Cloudy
11:15 PM 77.0 °F - 62.6 °F 61% 29.97 in 10.0 mi North 8.1 mph - N/A   Scattered Clouds
11:35 PM 77.0 °F - 62.6 °F 61% 29.97 in 10.0 mi North 5.8 mph - N/A   Mostly Cloudy
11:55 PM 75.2 °F - 62.6 °F 65% 29.96 in 10.0 mi Calm Calm - N/A   Scattered Clouds